PRPLR SBCH-SBPF

Flight info

Callsign PRPLR
Flight time 0h 32m
Altitude 10000
Route TEGET DCT PF011/N0365F190
Aircraft E50P/L-SBDFGRWY/LB2

Departure

Time 2026-04-17 20:01
Airport Serafin Enoss Bertaso Airport (SBCH)

Arrival

Time 2026-04-17 20:33
Airport Lauro Kurtz Airport (SBPF)
Time Latitude Longitude Altitude Speed Heading
2026-04-17 19:48 -27.13250 -52.65938 2122 ft 0 kts 274°
2026-04-17 19:56 -27.13251 -52.65953 2124 ft 6 kts 252°
2026-04-17 19:56 -27.13272 -52.66027 2122 ft 14 kts 279°
2026-04-17 19:57 -27.13275 -52.66098 2124 ft 4 kts 190°
2026-04-17 19:57 -27.13304 -52.66102 2125 ft 6 kts 188°
2026-04-17 19:57 -27.13361 -52.66092 2124 ft 10 kts 112°
2026-04-17 19:57 -27.13369 -52.65993 2124 ft 17 kts 101°
2026-04-17 19:58 -27.13393 -52.65827 2122 ft 26 kts 102°
2026-04-17 19:58 -27.13423 -52.65616 2120 ft 29 kts 99°
2026-04-17 19:58 -27.13459 -52.65359 2119 ft 37 kts 99°
2026-04-17 19:58 -27.13501 -52.65057 2122 ft 40 kts 98°
2026-04-17 19:59 -27.13558 -52.64900 2122 ft 12 kts 156°
2026-04-17 19:59 -27.13566 -52.64888 2122 ft 0 kts 58°
2026-04-17 19:59 -27.13549 -52.64878 2122 ft 7 kts
2026-04-17 19:59 -27.13518 -52.64946 2121 ft 13 kts 283°
2026-04-17 20:00 -27.13515 -52.64961 2124 ft 0 kts 280°
2026-04-17 20:00 -27.13492 -52.65136 2120 ft 50 kts 282°
2026-04-17 20:00 -27.13412 -52.65697 2121 ft 93 kts 281°
2026-04-17 20:01 -27.13291 -52.66499 2268 ft 109 kts 276°
2026-04-17 20:01 -27.13176 -52.67412 2542 ft 127 kts 278°
2026-04-17 20:01 -27.13025 -52.68502 2677 ft 155 kts 277°
2026-04-17 20:01 -27.12931 -52.69733 3002 ft 158 kts 259°
2026-04-17 20:02 -27.13514 -52.70666 3613 ft 150 kts 220°
2026-04-17 20:02 -27.14459 -52.71205 4022 ft 159 kts 197°
2026-04-17 20:02 -27.15554 -52.71426 4527 ft 159 kts 198°
2026-04-17 20:02 -27.16615 -52.71753 5055 ft 158 kts 199°
2026-04-17 20:03 -27.17692 -52.72049 5699 ft 161 kts 198°
2026-04-17 20:03 -27.18790 -52.72356 6362 ft 164 kts 199°
2026-04-17 20:03 -27.19904 -52.72677 6946 ft 166 kts 200°
2026-04-17 20:03 -27.21026 -52.73003 7496 ft 168 kts 201°
2026-04-17 20:04 -27.22157 -52.73327 8119 ft 167 kts 200°
2026-04-17 20:04 -27.23285 -52.73653 8741 ft 169 kts 200°
2026-04-17 20:04 -27.24416 -52.73975 9307 ft 169 kts 202°
2026-04-17 20:04 -27.25562 -52.74313 9803 ft 173 kts 202°
2026-04-17 20:05 -27.26827 -52.74685 9916 ft 206 kts 200°
2026-04-17 20:05 -27.28334 -52.75121 9929 ft 240 kts 199°
2026-04-17 20:05 -27.30038 -52.75608 9924 ft 265 kts 199°
2026-04-17 20:05 -27.31882 -52.76138 9924 ft 276 kts 199°
2026-04-17 20:06 -27.33710 -52.76658 9919 ft 266 kts 199°
2026-04-17 20:06 -27.35480 -52.77165 9915 ft 258 kts 199°
2026-04-17 20:06 -27.37169 -52.77656 9909 ft 252 kts 199°
2026-04-17 20:06 -27.38853 -52.78141 9906 ft 247 kts 199°
2026-04-17 20:07 -27.40503 -52.78617 9905 ft 243 kts 199°
2026-04-17 20:07 -27.42131 -52.79090 9900 ft 241 kts 199°
2026-04-17 20:07 -27.43747 -52.79558 9891 ft 238 kts 199°
2026-04-17 20:07 -27.45342 -52.80018 9891 ft 236 kts 199°
2026-04-17 20:08 -27.46924 -52.80477 9888 ft 234 kts 199°
2026-04-17 20:08 -27.48499 -52.80934 9890 ft 233 kts 199°
2026-04-17 20:08 -27.50065 -52.81386 9888 ft 231 kts 199°
2026-04-17 20:08 -27.51609 -52.81785 9886 ft 233 kts 193°
2026-04-17 20:09 -27.53245 -52.81729 9887 ft 238 kts 176°
2026-04-17 20:09 -27.54855 -52.81245 9884 ft 240 kts 167°
2026-04-17 20:09 -27.56457 -52.80715 9884 ft 239 kts 169°
2026-04-17 20:09 -27.58061 -52.80205 9883 ft 240 kts 168°
2026-04-17 20:10 -27.59658 -52.79672 9883 ft 239 kts 168°
2026-04-17 20:10 -27.61252 -52.79148 9887 ft 239 kts 168°
2026-04-17 20:10 -27.62845 -52.78624 9888 ft 238 kts 168°
2026-04-17 20:10 -27.64437 -52.78101 9888 ft 238 kts 168°
2026-04-17 20:11 -27.66009 -52.77584 9885 ft 238 kts 168°
2026-04-17 20:11 -27.67599 -52.77061 9885 ft 238 kts 169°
2026-04-17 20:11 -27.69190 -52.76537 9886 ft 238 kts 169°
2026-04-17 20:11 -27.70780 -52.76014 9884 ft 238 kts 168°
2026-04-17 20:12 -27.72369 -52.75491 9887 ft 237 kts 169°
2026-04-17 20:12 -27.73950 -52.74968 9888 ft 237 kts 169°
2026-04-17 20:12 -27.75530 -52.74450 9890 ft 238 kts 169°
2026-04-17 20:12 -27.77126 -52.73923 9891 ft 238 kts 169°
2026-04-17 20:13 -27.78720 -52.73398 9888 ft 239 kts 169°
2026-04-17 20:13 -27.80293 -52.72879 9888 ft 239 kts 169°
2026-04-17 20:13 -27.81888 -52.72352 9889 ft 239 kts 169°
2026-04-17 20:13 -27.83488 -52.71824 9887 ft 239 kts 169°
2026-04-17 20:14 -27.85084 -52.71297 9888 ft 239 kts 169°
2026-04-17 20:14 -27.86677 -52.70771 9889 ft 239 kts 169°
2026-04-17 20:14 -27.88271 -52.70244 9890 ft 239 kts 169°
2026-04-17 20:14 -27.89867 -52.69718 9889 ft 239 kts 169°
2026-04-17 20:15 -27.91464 -52.69189 9889 ft 240 kts 169°
2026-04-17 20:15 -27.93067 -52.68660 9891 ft 240 kts 169°
2026-04-17 20:15 -27.94500 -52.68184 9890 ft 240 kts 169°
2026-04-17 20:15 -27.96100 -52.67656 9889 ft 239 kts 169°
2026-04-17 20:16 -27.97691 -52.67129 9892 ft 238 kts 169°
2026-04-17 20:16 -27.99284 -52.66603 9892 ft 238 kts 169°
2026-04-17 20:16 -28.00869 -52.66076 9890 ft 237 kts 169°
2026-04-17 20:16 -28.02457 -52.65551 9891 ft 237 kts 169°
2026-04-17 20:17 -28.04041 -52.65026 9892 ft 237 kts 169°
2026-04-17 20:17 -28.05625 -52.64500 9894 ft 238 kts 169°
2026-04-17 20:17 -28.07191 -52.63976 9900 ft 238 kts 169°
2026-04-17 20:17 -28.08781 -52.63451 9901 ft 238 kts 169°
2026-04-17 20:18 -28.10373 -52.62928 9901 ft 238 kts 169°
2026-04-17 20:18 -28.11965 -52.62397 9903 ft 239 kts 169°
2026-04-17 20:18 -28.13557 -52.61875 9906 ft 238 kts 170°
2026-04-17 20:18 -28.15149 -52.61362 9909 ft 238 kts 170°
2026-04-17 20:19 -28.16740 -52.60850 9910 ft 238 kts 170°
2026-04-17 20:19 -28.18332 -52.60339 9911 ft 238 kts 170°
2026-04-17 20:19 -28.19921 -52.59825 9911 ft 238 kts 170°
2026-04-17 20:19 -28.21495 -52.59317 9915 ft 239 kts 170°
2026-04-17 20:20 -28.23093 -52.58802 9914 ft 239 kts 170°
2026-04-17 20:20 -28.24691 -52.58287 9922 ft 239 kts 170°
2026-04-17 20:20 -28.26222 -52.57538 9906 ft 246 kts 148°
2026-04-17 20:20 -28.27259 -52.55989 9903 ft 254 kts 114°
2026-04-17 20:21 -28.27467 -52.54013 9909 ft 255 kts 81°
2026-04-17 20:21 -28.26823 -52.52167 9917 ft 251 kts 55°
2026-04-17 20:21 -28.25850 -52.50478 9917 ft 266 kts 53°
2026-04-17 20:21 -28.24903 -52.48684 9925 ft 265 kts 58°
2026-04-17 20:22 -28.24035 -52.46882 9933 ft 263 kts 59°
2026-04-17 20:22 -28.23140 -52.45081 9934 ft 262 kts 57°
2026-04-17 20:22 -28.22243 -52.43292 9938 ft 261 kts 57°
2026-04-17 20:22 -28.21351 -52.41506 9947 ft 260 kts 58°
2026-04-17 20:23 -28.20461 -52.39726 9941 ft 259 kts 58°
2026-04-17 20:23 -28.19573 -52.37947 9854 ft 257 kts 57°
2026-04-17 20:23 -28.18707 -52.36211 9571 ft 251 kts 57°
2026-04-17 20:23 -28.17856 -52.34508 9261 ft 247 kts 57°
2026-04-17 20:24 -28.17024 -52.32852 8937 ft 244 kts 57°
2026-04-17 20:24 -28.16193 -52.31189 8622 ft 241 kts 58°
2026-04-17 20:24 -28.15369 -52.29544 8297 ft 239 kts 58°
2026-04-17 20:24 -28.14550 -52.27913 7980 ft 237 kts 58°
2026-04-17 20:25 -28.13744 -52.26300 7663 ft 234 kts 58°
2026-04-17 20:25 -28.12943 -52.24705 7356 ft 232 kts 58°
2026-04-17 20:25 -28.12152 -52.23124 7047 ft 230 kts 58°
2026-04-17 20:25 -28.11367 -52.21557 6742 ft 228 kts 59°
2026-04-17 20:26 -28.10890 -52.19867 6561 ft 222 kts 81°
2026-04-17 20:26 -28.10702 -52.18171 6280 ft 220 kts 85°
2026-04-17 20:26 -28.10981 -52.16487 5873 ft 221 kts 119°
2026-04-17 20:26 -28.12011 -52.15243 5471 ft 217 kts 149°
2026-04-17 20:27 -28.13334 -52.14632 5417 ft 196 kts 173°
2026-04-17 20:27 -28.14670 -52.14556 5418 ft 191 kts 182°
2026-04-17 20:27 -28.15974 -52.14530 5416 ft 181 kts 189°
2026-04-17 20:27 -28.17109 -52.14935 5411 ft 165 kts 210°
2026-04-17 20:28 -28.18012 -52.15626 5363 ft 156 kts 226°
2026-04-17 20:28 -28.18675 -52.16557 5199 ft 148 kts 242°
2026-04-17 20:28 -28.19076 -52.17602 5014 ft 142 kts 252°
2026-04-17 20:28 -28.19439 -52.18625 4832 ft 137 kts 249°
2026-04-17 20:29 -28.19789 -52.19605 4658 ft 132 kts 250°
2026-04-17 20:29 -28.20123 -52.20559 4488 ft 129 kts 249°
2026-04-17 20:29 -28.20452 -52.21500 4314 ft 129 kts 250°
2026-04-17 20:29 -28.20778 -52.22424 4153 ft 121 kts 251°
2026-04-17 20:30 -28.21302 -52.23908 3879 ft 87 kts 252°
2026-04-17 20:30 -28.21529 -52.24566 3770 ft 99 kts 249°
2026-04-17 20:30 -28.21799 -52.25331 3629 ft 105 kts 251°
2026-04-17 20:31 -28.22066 -52.26106 3495 ft 106 kts 249°
2026-04-17 20:31 -28.22331 -52.26869 3358 ft 101 kts 249°
2026-04-17 20:31 -28.22586 -52.27595 3226 ft 100 kts 248°
2026-04-17 20:31 -28.22842 -52.28328 3096 ft 99 kts 251°
2026-04-17 20:32 -28.23095 -52.29045 2952 ft 97 kts 251°
2026-04-17 20:32 -28.23339 -52.29750 2828 ft 95 kts 251°
2026-04-17 20:32 -28.23581 -52.30439 2697 ft 96 kts 251°
2026-04-17 20:32 -28.23824 -52.31125 2592 ft 89 kts 249°
2026-04-17 20:33 -28.24047 -52.31773 2459 ft 88 kts 252°
2026-04-17 20:33 -28.24264 -52.32398 2382 ft 78 kts 252°
2026-04-17 20:33 -28.24445 -52.32907 2380 ft 61 kts 244°
2026-04-17 20:33 -28.24553 -52.33219 2379 ft 24 kts 248°
2026-04-17 20:34 -28.24594 -52.33337 2377 ft 0 kts 250°
2026-04-17 20:34 -28.24598 -52.33350 2377 ft 6 kts 260°
2026-04-17 20:35 -28.24598 -52.33373 2377 ft 1 kts 210°
2026-04-17 20:35 -28.24604 -52.33365 2377 ft 7 kts 81°
2026-04-17 20:35 -28.24567 -52.33256 2378 ft 20 kts 68°
2026-04-17 20:35 -28.24499 -52.33065 2379 ft 32 kts 68°
2026-04-17 20:36 -28.24437 -52.32900 2380 ft 4 kts 16°
2026-04-17 20:36 -28.24366 -52.32925 2378 ft 16 kts 340°
2026-04-17 20:36 -28.24323 -52.32939 2378 ft 1 kts 32°
2026-04-17 20:36 -28.24309 -52.32930 2378 ft 0 kts 21°